Hourly Weather Roundup
Issued by NWS Central Illinois

Home | Current Version | Previous Version | Text Only | Print | Product List | Glossary On
Versions: 1 2 3 4 5 6 7 8 9 10 11 12 13 14 15 16 17 18 19 20 21 22 23 24 25 26 27 28 29 30 31 32 33 34 35 36 37 38 39 40 41 42 43 44 45 46 47 48 49 50
000
NZUS43 KILX 252010
HWRILX

AREA WEATHER ROUNDUP
NATIONAL WEATHER SERVICE, LINCOLN IL
300 PM CDT THU AUG 25 2016


CITY           SKY/WX    TMP DP  RH WIND       PRES   REMARKS
BLOOMINGTON    MOSUNNY   82  70  66 SW6       30.08S HX  86
CHAMPAIGN      PTSUNNY   83  73  72 SW7       30.06F HX  89
DANVILLE       PTSUNNY   84  72  67 SW9       30.04F HX  90
DECATUR        MOSUNNY   86  71  60 SW12      30.06F HX  91
EFFINGHAM      CLOUDY    88  78  72 CALM      30.07F HX 101
FLORA          MOSUNNY   91  77  64 SW7       30.06F HX 104
GALESBURG      LGT RAIN  76  70  81 NW7       30.07S
JACKSONVILLE   PTSUNNY   84  71  65 W5        30.05F HX  89
LACON          CLOUDY    80  70  72 W5        30.04F HX  83
LAWRENCEVILLE  PTSUNNY   89  74  60 SW8       30.06F HX  98
LITCHFIELD     MOSUNNY   90  72  55 W6        30.06S HX  96
$$


CITY           SKY/WX    TMP DP  RH WIND       PRES   REMARKS
LINCOLN        PTSUNNY   83  74  73 CALM      30.05F HX  90
MACOMB         CLOUDY    78  71  79 W3        30.10R HX  81
MATTOON        MOSUNNY   86  72  62 S6        30.06F HX  92
MT CARMEL AP   MOSUNNY   89  76  64 W9        30.06F HX 100
OLNEY-NOBLE AP MOSUNNY   90  75  62 SW6       30.06F HX 100
PARIS          MOSUNNY   87  73  63 SW6       30.07F HX  94
PEORIA         CLOUDY    80  74  81 W5        30.05F HX  85
PONTIAC        CLOUDY    82  74  78 W7        30.05F HX  88
RANTOUL        CLOUDY    83  74  73 W6        30.07S HX  90
ROBINSON       MOSUNNY   89  78  70 W5        30.06F HX 102
SPRINGFIELD    CLOUDY    86  71  60 W5        30.05F HX  91
TAYLORVILLE    PTSUNNY   85  72  66 CALM      30.06F HX  91
$$

...REGIONAL REPORTS...


CITY           SKY/WX    TMP DP  RH WIND       PRES   REMARKS
CHICAGO O`HARE PTSUNNY   83  63  50 NW5       30.02F HX  84
KANKAKEE       PTSUNNY   82  71  68 W6        30.05F HX  86
MOLINE         NOT AVBL
MOUNT STERLING CLOUDY    79  71  78 NW9       30.08R HX  82
MOUNT VERNON   MOSUNNY   91  73  55 S9        30.06F HX 100
PITTSFIELD     MOSUNNY   85  71  64 S5        30.07S HX  90
QUINCY         PTSUNNY   81  73  76 N7        30.06S HX  86
ROCKFORD       CLOUDY    79  64  60 W7        30.06F HX  81
$$


CITY           SKY/WX    TMP DP  RH WIND       PRES   REMARKS
BURLINGTON     CLOUDY    76  68  76 W5        30.07S
CEDAR RAPIDS   MOSUNNY   76  65  68 CALM      30.06F
DES MOINES     CLOUDY    74  61  63 CALM      30.11R
KIRKSVILLE     MOSUNNY   76  69  79 NE10      30.08F
OTTUMWA        SUNNY     77  62  59 VRB3      30.08S
ST LOUIS       PTSUNNY   92  69  47 W12       30.05F HX  97
$$


CITY           SKY/WX    TMP DP  RH WIND       PRES   REMARKS
TERRE HAUTE    PTSUNNY   89  72  56 SW10      30.07F HX  96
EVANSVILLE     SUNNY     92  70  48 SW13      30.07F HX  97
INDIANAPOLIS   MOSUNNY   89  70  53 W16       30.06F HX  94
LAFAYETTE      PTSUNNY   82  71  69 W9        30.04F HX  86
MADISON        PTSUNNY   78  58  49 W7        30.05S
MILWAUKEE      PTSUNNY   82  62  50 E3        30.02F HX  83
$$






USA.gov is the U.S. government's official web portal to all federal, state and local government web resources and services.